www.pogodaiklimat.ru

Погода и климат >> Архив погоды >> Венгрия >> Мишкольц


ПОГОДА в Мишкольце

  • Прогноз погоды в Мишкольце
  • Монитор погоды в Мишкольце

АРХИВ ПОГОДЫ в Мишкольце

Время (UTC), дата Ветер
(напр.,м/с)
 
Видим.   Явления Облачность Т
(С)
Тd
(С)
f
(%)
Тe
(С)
Тes
(С)
Комфортность P
(гПа)
Po
(гПа)
Тmin
(С)
Tmax
(С)
R
(мм)
R24
(мм)
S
(см)
01 10.07 штиль 0 н/о н/о +15.0 +8.3 64 +15 +15 1013.7 994.4
02 10.07 штиль 0 н/о н/о +14.0 +8.2 68 +14 +14 1013.5 994.1
03 10.07 штиль 0 н/о н/о +12.8 +7.9 72 +12 +12 1013.6 994.1
04 10.07 СЗ 1 н/о н/о +13.3 +8.0 70 +14 +14 1013.8 994.3
05 10.07 штиль 0 н/о н/о +14.8 +8.1 64 +15 +15 1013.7 994.3
06 10.07 штиль 0 н/о н/о +16.4 +8.6 60 +16 +16 1013.9 994.6 +12.6
07 10.07 ЮВ 1 н/о н/о +18.2 +6.7 47 +19 +19 1013.9 994.8
08 10.07 С 1 н/о н/о +19.1 +5.9 42 +21 +21 комфорт 1013.8 994.7
09 10.07 С 2 н/о н/о +21.1 +6.2 38 +22 +22 комфорт 1013.6 994.7
10 10.07 ЮЗ 1 н/о н/о +22.2 +7.2 38 +23 +23 комфорт 1013.4 994.5
11 10.07 СЗ 3 н/о н/о +21.4 +7.6 41 +22 +22 комфорт 1013.2 994.3
12 10.07 СЗ 2 н/о н/о +21.9 +7.0 38 +23 +23 комфорт 1012.8 993.9
13 10.07 З 2 н/о н/о +24.0 +6.3 32 +24 +24 комфорт 1012.3 993.6
14 10.07 Ю 1 н/о н/о +23.9 +7.1 34 +24 +24 комфорт 1011.8 993.1
15 10.07 С 2 н/о н/о +22.2 +5.6 34 +23 +23 комфорт 1011.7 992.9
16 10.07 ЮЗ 1 н/о н/о +22.7 +6.0 34 +23 +23 комфорт 1011.5 992.7
17 10.07 ЮЗ 1 н/о н/о +22.1 +6.7 37 +23 +23 комфорт 1011.6 992.8
18 10.07 штиль 0 н/о н/о +20.3 +8.6 47 +21 +21 комфорт 1011.6 992.6 +24.5
19 10.07 штиль 0 н/о н/о +18.0 +8.3 53 +18 +18 1012.1 993.0
20 10.07 СЗ 1 н/о н/о +16.2 +8.7 61 +17 +17 1012.7 993.5
21 10.07 З 1 н/о н/о +15.7 +7.7 59 +16 +16 1013.5 994.2
22 10.07 З 1 н/о н/о +14.5 +8.0 65 +15 +15 1013.7 994.3
23 10.07 штиль 0 н/о н/о +13.2 +7.9 70 +13 +13 1013.6 994.1
00 11.07 штиль 0 н/о н/о +13.0 +7.7 70 +13 +13 1013.8 994.3
01 11.07 штиль 0 н/о н/о +12.3 +7.8 74 +12 +12 1013.5 994.0
02 11.07 штиль 0 н/о н/о +12.3 +8.2 76 +12 +12 1013.3 993.8
03 11.07 ЮЗ 1 н/о н/о +13.0 +8.1 72 +13 +13 1013.1 993.6
04 11.07 штиль 0 н/о н/о +13.1 +8.6 74 +13 +13 1013.0 993.5
05 11.07 штиль 0 н/о н/о +16.0 +8.0 59 +16 +16 1012.7 993.4
06 11.07 С 1 н/о н/о +17.6 +8.5 55 +19 +19 1012.5 993.4 +12.1
07 11.07 Ю 1 н/о н/о +18.9 +9.1 53 +21 +21 комфорт 1012.3 993.2
08 11.07 С 2 н/о н/о +19.0 +9.8 55 +20 +20 1012.7 993.6
09 11.07 С 2
{7}
н/о н/о +19.8 +11.0 57 +22 +22 комфорт 1012.7 993.7
10 11.07 СВ 1 н/о н/о +21.3 +8.9 45 +23 +23 комфорт 1011.9 993.0
11 11.07 ЮВ 1 н/о н/о +23.2 +8.9 40 +25 +25 комфорт 1011.1 992.3
12 11.07 С 4
{13}
н/о н/о +16.7 +9.2 61 +16 +16 1012.3 993.1
13 11.07 З 1
{9}
н/о н/о +14.7 +13.4 92 +15 +15 1013.3 993.9
14 11.07 СЗ 2 н/о н/о +17.6 +12.1 70 +18 +18 1012.2 993.1
15 11.07 С 2 н/о н/о +19.0 +10.8 59 +20 +20 1011.9 992.9
16 11.07 СЗ 2 н/о н/о +19.6 +8.6 49 +21 +21 комфорт 1011.7 992.7
17 11.07 С 1 н/о н/о +18.8 +8.2 50 +20 +20 1011.9 992.8
18 11.07 штиль 0 н/о н/о +17.4 +11.0 66 +17 +17 1012.3 993.1 +23.5 2
19 11.07 ЮЗ 1 н/о н/о +14.9 +11.3 79 +15 +15 1013.0 993.7
20 11.07 З 1 н/о н/о +14.4 +11.0 80 +15 +15 1013.4 994.0
21 11.07 ЮЗ 1 н/о н/о +13.8 +10.8 82 +14 +14 1013.7 994.3
22 11.07 ЮЗ 1 н/о н/о +12.6 +10.1 85 +13 +13 1013.9 994.4
23 11.07 штиль 0 н/о н/о +11.8 +9.5 86 +11 +11 1014.1 994.5
00 12.07 штиль 0 н/о н/о +11.1 +9.2 88 +10 +10 1014.0 994.4
01 12.07 ЮЗ 1 н/о н/о +10.5 +8.9 90 +10 +10 1013.8 994.2
02 12.07 штиль 0 н/о н/о +9.8 +8.2 90 +9 +9 1013.9 994.2
03 12.07 штиль 0 н/о н/о +9.7 +8.5 92 +9 +9 1014.1 994.4
04 12.07 штиль 0 н/о н/о +11.4 +9.1 86 +11 +11 1014.0 994.4
05 12.07 штиль 0 н/о н/о +14.1 +9.3 73 +14 +14 1013.8 994.4
06 12.07 С 1 н/о н/о +16.2 +10.1 67 +17 +17 1014.1 994.8 +9.5
07 12.07 В 1 н/о н/о +18.9 +11.2 61 +21 +21 комфорт 1013.8 994.7
08 12.07 СВ 1 н/о н/о +20.9 +11.5 55 +24 +24 комфорт 1013.1 994.2
09 12.07 С 1 н/о н/о +22.6 +10.7 47 +25 +25 комфорт 1012.8 994.0
10 12.07 З 1 н/о н/о +22.8 +9.9 44 +25 +25 комфорт 1012.4 993.6
11 12.07 Ю 1 н/о н/о +23.6 +9.6 41 +25 +25 комфорт 1012.0 993.2
12 12.07 С 2 н/о н/о +23.5 +8.0 37 +24 +24 комфорт 1011.5 992.7
13 12.07 Ю 1 н/о н/о +23.9 +8.7 38 +25 +25 комфорт 1011.3 992.6
14 12.07 ЮЗ 1 н/о н/о +24.2 +9.4 39 +25 +25 комфорт 1011.0 992.3
15 12.07 З 3 н/о н/о +24.7 +10.2 40 +26 +26 жарко 1010.6 991.9
16 12.07 Ю 1
{7}
н/о н/о +23.4 +9.0 40 +25 +25 комфорт 1010.4 991.7
17 12.07 штиль 0 н/о н/о +21.8 +10.0 47 +23 +23 комфорт 1010.6 991.8
18 12.07 С 2 н/о н/о +20.6 +11.3 55 +23 +23 комфорт 1010.9 992.0 +24.9
19 12.07 СЗ 1 н/о н/о +19.6 +11.6 60 +22 +22 комфорт 1011.2 992.2
20 12.07 штиль 0 н/о н/о +18.4 +11.9 66 +19 +19 1011.4 992.3
21 12.07 штиль 0 н/о н/о +17.7 +11.7 68 +18 +18 1011.4 992.3
22 12.07 штиль 0 н/о н/о +17.4 +12.1 71 +17 +17 1011.3 992.2
23 12.07 штиль 0 н/о н/о +17.0 +12.3 74 +17 +17 1011.3 992.1
00 13.07 СЗ 1 н/о н/о +16.4 +12.8 79 +17 +17 1011.1 991.9
01 13.07 штиль 0 н/о н/о +15.6 +14.1 91 +15 +15 1010.7 991.5
02 13.07 штиль 0 н/о н/о +15.3 +14.5 95 +15 +15 1010.6 991.3
03 13.07 штиль 0 н/о н/о +15.3 +14.5 95 +15 +15 1010.4 991.1
04 13.07 штиль 0 н/о н/о +15.2 +14.6 96 +15 +15 1010.4 991.1
05 13.07 З 1 н/о н/о +15.7 +14.6 93 +16 +16 1010.4 991.2
06 13.07 СВ 1 н/о н/о +18.2 +13.9 76 +20 +20 1010.5 991.4 +15.1 0.6
07 13.07 С 1 н/о н/о +19.2 +13.8 71 +22 +22 комфорт 1010.3 991.3
08 13.07 СВ 1 н/о н/о +20.4 +13.8 66 +24 +24 комфорт 1010.0 991.1
09 13.07 Ю 1 н/о н/о +21.0 +13.9 64 +25 +25 комфорт 1009.8 990.9
10 13.07 В 1 н/о н/о +21.9 +13.3 58 +25 +25 комфорт 1009.3 990.5
11 13.07 штиль 0 н/о н/о +20.1 +14.7 71 +22 +22 комфорт 1009.1 990.2
12 13.07 ЮВ 4 н/о н/о +17.1 +15.3 89 +17 +17 1009.4 990.3 3
13 13.07 Ю 1 н/о н/о +16.6 +16.3 98 +17 +17 1009.7 990.5
14 13.07 штиль 0 н/о н/о +17.4 +16.6 95 +17 +17 1009.7 990.6
15 13.07 З 1 н/о н/о +17.7 +16.2 91 +19 +19 1009.5 990.4
16 13.07 СЗ 1 н/о н/о +17.4 +15.7 90 +18 +18 1009.5 990.4
17 13.07 штиль 0 н/о н/о +17.2 +15.5 90 +17 +17 1009.0 989.9
18 13.07 штиль 0 н/о н/о +16.8 +15.8 94 +17 +17 1008.8 989.7 +22.8 8
19 13.07 штиль 0 н/о н/о +15.4 +14.6 95 +15 +15 1009.5 990.3
20 13.07 штиль 0 н/о н/о +15.2 +14.6 96 +15 +15 1009.6 990.4
21 13.07 штиль 0 н/о н/о +14.5 +14.2 98 +14 +14 1009.9 990.6
22 13.07 штиль 0 н/о н/о +13.7 +13.4 98 +13 +13 1010.1 990.7
23 13.07 штиль 0 н/о н/о +13.1 +12.9 99 +13 +13 1010.0 990.6
00 14.07 З 1 н/о н/о +13.6 +13.6 100 +14 +14 1010.0 990.6
01 14.07 штиль 0 н/о н/о +13.4 +13.2 99 +13 +13 1009.5 990.1
02 14.07 СЗ 1 н/о н/о +13.7 +13.4 98 +14 +14 1009.4 990.1
03 14.07 штиль 0 н/о н/о +13.9 +13.7 99 +13 +13 1009.6 990.3
04 14.07 штиль 0 н/о н/о +14.2 +14.0 99 +14 +14 1009.5 990.2
05 14.07 штиль 0 н/о н/о +15.8 +14.2 90 +16 +16 1009.6 990.4
06 14.07 С 1 н/о н/о +16.8 +14.6 87 +18 +18 1010.0 990.8 +13.0
07 14.07 С 1 н/о н/о +17.4 +14.5 83 +18 +18 1010.2 991.1
08 14.07 н/о н/о +18.0 +14.1 78 1010.6 991.5
09 14.07 С 3 н/о н/о +20.4 +14.3 68 +23 +23 комфорт 1010.2 991.3
10 14.07 СЗ 3 н/о н/о +19.4 +14.2 72 +21 +21 комфорт 1010.5 991.5
11 14.07 З 1 н/о н/о +21.4 +12.8 58 +24 +24 комфорт 1009.8 990.9
12 14.07 ЮЗ 1
{11}
н/о н/о +16.7 +15.4 92 +18 +18 1010.3 991.1 3
13 14.07 З 2 н/о н/о +22.0 +14.9 64 +25 +25 комфорт 1009.4 990.6
14 14.07 н/о н/о +22.8 +12.4 52 1009.2 990.4
15 14.07 СВ 2 н/о н/о +21.8 +12.6 56 +24 +24 комфорт 1009.5 990.7
16 14.07 З 3
{9}
н/о н/о +18.8 +12.1 65 +20 +20 1010.6 991.6
17 14.07 З 1 н/о н/о +17.5 +13.6 78 +19 +19 1010.8 991.7
18 14.07 З 2 н/о н/о +17.6 +13.5 77 +18 +18 1010.8 991.7 +23.7 3
19 14.07 З 1 н/о н/о +15.9 +13.4 85 +17 +17 1011.4 992.2
20 14.07 З 1 н/о н/о +14.7 +12.9 89 +15 +15 1011.8 992.5
21 14.07 штиль 0 н/о н/о +14.2 +12.6 90 +14 +14 1012.1 992.7
22 14.07 З 1 н/о н/о +13.6 +12.3 92 +14 +14 1012.2 992.8
23 14.07 З 1 н/о н/о +13.1 +11.5 90 +13 +13 1012.0 992.6
00 15.07 З 1 н/о н/о +12.9 +10.8 87 +13 +13 1011.9 992.5
01 15.07 З 1 н/о н/о +12.6 +10.1 85 +13 +13 1011.7 992.2
02 15.07 штиль 0 н/о н/о +12.3 +10.0 86 +12 +12 1011.6 992.1
03 15.07 штиль 0 н/о н/о +11.7 +9.9 89 +11 +11 1011.8 992.3
04 15.07 штиль 0 н/о н/о +13.0 +10.5 85 +13 +13 1011.9 992.5
05 15.07 СЗ 1 н/о н/о +16.9 +11.0 68 +18 +18 1011.7 992.5
06 15.07 СЗ 2 н/о н/о +19.0 +10.6 58 +20 +20 1011.8 992.8 +11.7
07 15.07 СЗ 3 н/о н/о +20.6 +10.1 51 +23 +23 комфорт 1011.9 993.0
08 15.07 С 3
{7}
н/о н/о +22.0 +8.9 43 +23 +23 комфорт 1012.0 993.1
09 15.07 С 3
{8}
н/о н/о +22.8 +7.4 37 +24 +24 комфорт 1011.8 993.0
10 15.07 С 3
{7}
н/о н/о +23.4 +5.3 31 +24 +24 комфорт 1011.7 992.9
11 15.07 С 3 н/о н/о +23.7 +6.0 32 +24 +24 комфорт 1011.6 992.9
12 15.07 С 3 н/о н/о +24.1 +5.9 31 +24 +24 комфорт 1011.5 992.8
13 15.07 СВ 3
{8}
н/о н/о +25.3 +6.5 30 +25 +25 комфорт 1011.1 992.5
14 15.07 СЗ 1 н/о н/о +25.3 +6.0 29 +25 +25 комфорт 1011.1 992.5
15 15.07 С 1
{7}
н/о н/о +25.0 +7.2 32 +25 +25 комфорт 1011.0 992.4
16 15.07 С 2 н/о н/о +24.5 +6.3 31 +24 +24 комфорт 1011.1 992.4
17 15.07 СВ 2 н/о н/о +23.7 +6.5 33 +24 +24 комфорт 1011.4 992.7
18 15.07 СВ 1 н/о н/о +22.0 +7.4 39 +23 +23 комфорт 1011.9 993.0 +26.0
19 15.07 ЮЗ 1 н/о н/о +18.7 +10.3 58 +20 +20 1012.4 993.3
20 15.07 ЮЗ 1 н/о н/о +16.9 +10.7 67 +18 +18 1013.0 993.8
21 15.07 штиль 0 н/о н/о +15.6 +9.9 69 +15 +15 1013.6 994.3
22 15.07 штиль 0 н/о н/о +14.7 +9.7 72 +14 +14 1013.8 994.4
23 15.07 ЮЗ 1 н/о н/о +13.8 +9.3 74 +14 +14 1013.9 994.5
00 16.07 ЮЗ 1 н/о н/о +13.0 +9.3 78 +13 +13 1013.9 994.4
01 16.07 штиль 0 н/о н/о +12.3 +9.0 80 +12 +12 1013.7 994.2
02 16.07 штиль 0 н/о н/о +12.0 +8.7 80 +11 +11 1013.7 994.2
03 16.07 ЮЗ 1 н/о н/о +11.7 +8.6 81 +12 +12 1013.8 994.2
04 16.07 ЮЗ 1 н/о н/о +12.9 +8.8 76 +13 +13 1013.5 994.0
05 16.07 штиль 0 н/о н/о +16.2 +9.8 66 +16 +16 1013.5 994.2
06 16.07 штиль 0 н/о н/о +19.1 +10.4 57 +20 +20 1013.2 994.1 +11.7
07 16.07 В 1 н/о н/о +22.7 +10.2 45 +25 +25 комфорт 1012.7 993.9
08 16.07 СЗ 2 н/о н/о +23.7 +6.5 33 +24 +24 комфорт 1012.6 993.8
09 16.07 С 2 н/о н/о +24.5 +5.3 29 +24 +24 комфорт 1012.3 993.6
10 16.07 СЗ 3 н/о н/о +25.4 +6.6 30 +25 +25 комфорт 1011.9 993.3
11 16.07 СЗ 2 н/о н/о +25.6 +6.8 30 +25 +25 комфорт 1011.5 992.9
12 16.07 СЗ 1 н/о н/о +25.7 +6.3 29 +25 +25 комфорт 1011.0 992.4
13 16.07 З 2 н/о н/о +27.5 +7.9 29 +27 +27 жарко 1010.5 992.0
14 16.07 Ю 1 н/о н/о +27.9 +8.2 29 +28 +28 жарко 1009.8 991.4
15 16.07 ЮЗ 2 н/о н/о +27.3 +8.7 31 +27 +27 жарко 1009.5 991.0
16 16.07 Ю 1 н/о н/о +26.9 +9.7 34 +27 +27 жарко 1009.1 990.6
17 16.07 ЮЗ 2 н/о н/о +26.2 +9.1 34 +27 +27 жарко 1008.7 990.2
18 16.07 Ю 1 н/о н/о +23.5 +11.5 47 +25 +25 комфорт 1009.1 990.4 +28.2
19 16.07 штиль 0 н/о н/о +21.1 +11.2 53 +23 +23 комфорт 1009.6 990.7
20 16.07 З 2 н/о н/о +20.2 +11.2 56 +22 +22 комфорт 1010.0 991.1
21 16.07 С 1 н/о н/о +20.3 +9.8 51 +23 +23 комфорт 1010.2 991.3
22 16.07 С 1 н/о н/о +19.4 +11.4 60 +22 +22 комфорт 1011.0 992.0
23 16.07 штиль 0 н/о н/о +17.5 +10.9 65 +18 +18 1011.7 992.6
00 17.07 штиль 0 н/о н/о +15.7 +10.9 73 +16 +16 1012.1 992.8

 

Местоположение метеостанции Мишкольц (Венгрия): широта 48.10 долгота 20.77 высота над уровнем моря 236 м.

В архиве по умолчанию представлена погода в Мишкольце за последнюю неделю. Архивные данные за месяц целиком и за предыдущие месяцы, начиная с января 2011 года, Вы можете получить, выбрав интересующий диапазон дат из раскрывающегося списка и нажав кнопку "Ввод!".


*Определитесь, кто Вы:
робот инопланетянин человек

Внимание! Время в таблицах - всемирное. Для получения местного времени необходимо прибавить поправку, которая равна 1 ч.

Смотрите также архив погоды в соседних городах и на ближайших метеорологических станциях:

Погода в Эгере (Венгрия) (37 км)
Погода в Йосвафо (Венгрия) (46 км)
Погода в Порозло (Венгрия) (51 км)
Погода на Кекеше (Венгрия) (61 км)
Погода в Кошице (Словакия) (72 км)
Погода на Станции Kojsovska Hola (Словакия) (77 км)
Погода в Лученце (Словакия) (81 км)
Погода в Ньиредьхазе (Венгрия) (84 км)
Погода в Дебрецене (Венгрия) (93 км)
Погода в Сечене (Польша) (93 км)

Пояснения к столбцам:

Ветер - указаны скорость ветра в м/с - средняя за 10 мин, порывы в срок и между сроками (в фигурных скобках) и направление, откуда дует ветер: С - северный, СВ - северо-восточный, В - восточный, ЮВ - юго-восточный, Ю - южный, ЮЗ - юго-западный, З - западный, СЗ - северо-западный.
Видимость - горизонтальная дальность видимости в метрах или километрах. При видимости от 1 до 10 км при отсутствии осадков обычно наблюдается дымка, при ухудшении видимости до 1 км и менее - туман. В сухую погоду видимость может ухудшаться дымом, пылью или мглою.
Явления - указаны атмосферные явления, наблюдавшиеся в срок или в последний час перед сроком; фигурными скобками обозначены явления, наблюдавшиеся между сроками (за 1-3 часа до срока); квадратными скобками обозначены град или гололедные отложения с указанием их диаметра в мм.
Облачность - указаны через наклонную черту общая и нижняя облачность в баллах и высота нижней границы облаков в метрах; квадратными скобками обозначены формы облаков: Ci - перистые, Cs - перисто-слоистые, Cc - перисто-кучевые, Ac - высококучевые, As - высокослоистые, Sc - слоисто-кучевые, Ns - слоисто-дождевые, Cu - кучевые, Cb - кучево-дождевые. Подробнее классификацию облаков см. в Атласе облаков (PDF).
T - Температура воздуха - температура, измеренная на высоте 2 м над землей.
Td - Температура точки росы - температура, при понижении до которой содержащийся в воздухе водяной пар достигнет насыщения.
f - Относительная влажность воздуха - влажноcть воздуха, измеренная на высоте 2 м над землей.
Te - Эффективная температура - температура, которую ощущает одетый по сезону человек в тени. Характеристика душности погоды. При расчете учитывается влияние влажности воздуха и скорости ветра на теплоощущения человека.
Tes - Эффективная температура на солнце - температура, которую ощущает человек, с поправкой на солнечный нагрев. Характеристика знойности погоды. Зависит от высоты солнца над горизонтом, облачности и скорости ветра. Ночью, в пасмурную погоду, а также при ветре 12 м/с и более поправка равна нулю.
P - Атмосферное давление - приведенное к уровню моря атмосферное давление.
Po - Атмосферное давление - измеренное на уровне метеостанции атмосферное давление.
Tmin - Минимальная температура - минимум температуры воздуха на высоте 2 м над землей.
Tmax - Максимальная температура - максимум температуры воздуха на высоте 2 м над землей.
R - Количество осадков - Количество выпавших осадков за период времени, мм. При наведении курсора мыши на число - период времени, за который выпало указанное количество осадков.
R24 - Количество осадков - Количество выпавших осадков за 24 часа, мм.
S - Снежный покров - Высота снежного покрова, см. При наведении курсора мыши на число - состояние снежного покрова и степень покрытия местности в баллах.